Home   Weather   Australia   Adelaide   Past weeks
Flag for Australia

Past Weather in Adelaide, South Australia, Australia — December 2019

Currently: 71 °F. Mild. (Weather station: Adelaide Airport, Australia). See more current weather

December 2019 Weather in Adelaide — Graph

°F

High & Low Weather Summary for December 2019

 TemperatureHumidityPressure
High110 °F (Dec 19, 6:30 pm)90% (Dec 1, 9:30 am)30.23 "Hg (Dec 1, 9:30 am)
Low49 °F (Dec 7, 6:00 am)5% (Dec 8, 3:30 pm)29.56 "Hg (Dec 30, 3:00 pm)
Average72 °F48%29.95 "Hg
* Reported Dec 1 12:00 am — Dec 31 11:30 pm, Adelaide. Weather by CustomWeather, © 2021

Note: Actual official high and low records may vary slightly from our data, if they occured in-between our weather recording intervals... More about our weather records

Adelaide Weather History for December 1, 2019

Scroll right to see more
 ConditionsComfort  
Time TempWeatherWind HumidityBarometerVisibility
12:00 am
Sun, Dec 1
57 °FOvercast.16 mph56%29.97 "Hg12 mi
12:30 am57 °FRefreshingly cool.20 mph54%29.96 "HgN/A
1:30 am57 °FRefreshingly cool.17 mph57%29.94 "HgN/A
2:30 am54 °FCool.15 mph82%29.92 "HgN/A
3:00 am54 °FSprinkles. Overcast.13 mph86%29.90 "Hg6 mi
3:30 am55 °FCool.17 mph72%29.88 "HgN/A
4:30 am54 °FCool.16 mph84%29.86 "HgN/A
5:30 am55 °FCool.18 mph87%29.84 "HgN/A
6:00 am56 °FDrizzle. Overcast.21 mph83%29.84 "Hg5 mi
6:30 am56 °FCool.18 mph87%29.83 "HgN/A
7:30 am57 °FCool.20 mph81%29.81 "HgN/A
8:30 am59 °FCool.20 mph79%29.80 "HgN/A
9:00 am59 °FDrizzle. Overcast.22 mph79%29.79 "Hg6 mi
9:30 am59 °FCool.21 mph90%29.78 "HgN/A
10:30 am60 °FCool.22 mph77%29.78 "HgN/A
11:30 am62 °FCool.29 mph66%29.78 "HgN/A
12:00 pm62 °FOvercast.28 mph60%29.76 "Hg9 mi
12:30 pm62 °FCool.23 mph64%29.76 "HgN/A
1:30 pm62 °FCool.23 mph62%29.75 "HgN/A
2:30 pm62 °FMild.28 mph64%29.73 "HgN/A
3:00 pm62 °FOvercast.28 mph56%29.73 "Hg9 mi
3:30 pm62 °FRefreshingly cool.29 mph52%29.72 "HgN/A
4:30 pm61 °FRefreshingly cool.29 mph56%29.70 "HgN/A
5:30 pm61 °FRefreshingly cool.25 mph55%29.70 "HgN/A
6:00 pm60 °FOvercast.25 mph59%29.70 "Hg9 mi
6:30 pm60 °FCool.24 mph70%29.70 "HgN/A
7:30 pm59 °FCool.25 mph73%29.70 "HgN/A
8:30 pm59 °FCool.25 mph80%29.69 "HgN/A
9:00 pm58 °FRain showers. Overcast.22 mph90%29.69 "Hg4 mi
9:30 pm58 °FCool.23 mph88%29.68 "HgN/A
10:30 pm60 °FCool.25 mph76%29.68 "HgN/A
11:30 pm60 °FCool.23 mph75%29.67 "HgN/A
Weather by CustomWeather, © 2021

See weather overview